Location: Newark
(41.6500°N, 71.4833°W)
Time: 14:58:21
(UTC+00:00)

A-11 Canister half - Pass Details

Date: 27 January 2020
Orbit: 1517 x 1683 km, 47.2° (Epoch: 26 February)

Event Time Altitude Azimuth Distance (km) Brightness Sun altitude
Rises 03:50:40 0° 233° (SW) 4,763 - -62.8°
Reaches altitude 10° 03:53:46 10° 232° (SW) 3,759 - -63.1°
Maximum altitude 04:03:14 77° 149° (SSE) 1,572 - -64.1°
Drops below altitude 10° 04:12:29 10° 65° (ENE) 3,684 - -65.0°
Sets 04:15:30 0° 64° (ENE) 4,664 - -65.2°
